TIME,DELAY(SENSOR),PRES,T(CTD),SAL,OXYGEN,RAWTEMP,T(OPTODE),TCPHASE,FLUOR,BETA(BETA700),BETA(BETA412),BETA(BETA440),CDOM,C(CSC),ED(ED412.40),ED(ED444.00),ED(ED489.70),ED(ED554.30),LU(LU411.80),LU(LU443.40),LU(LU489.60),LU(LU554.10),COMP,TILTX,TILTX(TILTY),CHECK
1369000030,5808,493.8999938964844000,6.9184999465942380,34.1142005920410160,89.5775527954101600,590.2380981445312000,6.8991599082946780,47.6691093444824200,50,102,88,81,78,14906,2147746459,2147422875,2148007606,2147872393,2147625179,2147073837,2148244498,2147199158,752,4,13,31626
1369000133,5809,482.7399902343750000,7.1774001121521000,34.1049995422363300,97.8685302734375000,582.0062255859375000,7.1640110015869140,46.6391487121582000,51,107,85,80,77,14908,2147743579,2147425078,2148005412,2147873179,2147625106,2147078272,2148238290,2147199168,2914,4,13,5930
1369000236,5810,471.6099853515625000,7.2866001129150390,34.0998992919921900,104.1588973999023400,578.6630859375000000,7.2713971138000490,45.9272193908691400,51,103,88,79,76,14907,2147744886,2147423524,2148003117,2147870473,2147622034,2147080685,2148236534,2147201042,3101,4,13,28609
1369000354,5809,460.7000122070312500,7.4685001373291020,34.0982017517089840,110.2578964233398400,572.9376831054688000,7.4550700187683105,45.2150001525878900,51,103,87,79,76,14909,2147740562,2147425060,2148006253,2147872868,2147625188,2147078107,2148236608,2147201106,2789,4,13,44271
1369000505,5812,449.3699951171875000,7.5805997848510740,34.0937004089355500,116.3569030761718800,569.4890747070312000,7.5655608177185060,44.5586395263671900,50,103,85,81,76,14908,2147743771,2147424493,2148004534,2147873142,2147624384,2147081097,2148236992,2147202770,3066,4,13,36663
1369000662,5809,437.4100036621094000,7.8427000045776370,34.0848999023437500,128.2953948974609400,560.8594970703125000,7.8415999412536620,43.2927017211914060,51,103,88,78,75,14908,2147743881,2147422747,2148006564,2147873371,2147622573,2147084973,2148231643,2147203035,1750,4,13,45625
1369000789,5807,425.7200012207031000,8.0956001281738280,34.0750999450683600,138.0890960693359400,553.6694946289062000,8.0711040496826170,42.3015289306640600,50,103,87,80,75,14909,2147741686,2147422363,2148007323,2147872201,2147621714,2147086546,2148236141,2147201334,2526,3,13,5230
1369000906,5807,415.1499938964844000,8.3753995895385740,34.0786018371582000,146.8739929199218800,544.6729125976562000,8.3576679229736330,41.4036293029785160,50,103,86,80,75,14907,2147738395,2147426633,2148005257,2147873161,2147622820,2147084626,2148231725,2147202002,1598,4,13,12996
1369001033,5805,403.6300048828125000,8.6382999420166020,34.0848007202148440,158.9678955078125000,536.2589111328125000,8.6250782012939450,40.2914199829101560,50,103,90,80,73,14909,2147736393,2147424603,2148003373,2147873078,2147616758,2147088877,2148231497,2147201499,553,4,13,20215
1369001160,5810,391.9599914550781000,8.8305997848510740,34.0845985412597660,165.0785980224609400,530.0457763671875000,8.8221836090087890,39.7187614440918000,49,107,88,80,74,14902,2147738121,2147422994,2148005010,2147871579,2147616448,2147088896,2148226596,2147202614,453,4,12,23340
1369001278,5809,381.5599975585937500,9.1226997375488280,34.0903015136718750,172.5119018554687500,521.0404052734375000,9.1073398590087890,39.0177192687988300,50,104,90,80,72,14906,2147736841,2147423012,2148004352,2147873773,2147615186,2147090258,2148229540,2147199533,2072,4,13,25107
1369001405,5810,370.5799865722656000,9.3123998641967770,34.0994987487793000,180.7642974853515600,514.7573852539062000,9.3059329986572270,38.3306503295898440,49,102,87,78,72,14900,2147737792,2147425097,2148005019,2147873965,2147615469,2147090230,2148227995,2147199424,2328,3,13,47087
1369001546,5808,359.0899963378906000,9.5572004318237300,34.1074981689453100,186.2577972412109400,506.9859008789062500,9.5511713027954100,37.8253784179687500,48,104,87,79,71,14906,2147733037,2147424859,2148006573,2147873252,2147610203,2147092352,2148229833,2147201161,949,4,13,36612
1369001673,5805,348.5899963378906000,9.8506002426147460,34.1194000244140600,192.3480072021484400,497.9049072265625000,9.8371896743774410,37.2710609436035160,50,102,89,79,71,14905,2147735332,2147426294,2148007926,2147874112,2147615277,2147096576,2148221641,2147201298,295,4,13,5129
1369001812,5805,336.9400024414062500,10.1205997467041020,34.1296997070312500,197.4170074462890600,489.3959045410156000,10.1046800613403320,36.8061218261718750,50,103,86,79,70,14908,2147730797,2147424539,2148008137,2147873737,2147611748,2147100288,2148223872,2147206436,3218,3,13,57721
1369001942,5805,326.1099853515625000,10.3978004455566400,34.1397018432617200,201.5917968750000000,480.2549133300781000,10.3914899826049800,36.3941497802734400,48,105,86,80,71,14905,2147732022,2147428032,2148009691,2147871570,2147609408,2147096539,2148221275,2147200758,1950,3,14,62447
1369002069,5809,315.7699890136719000,10.6006002426147460,34.1483993530273440,204.3605957031250000,473.8707885742187500,10.5914802551269530,36.1198997497558600,49,102,86,80,69,14907,2147731264,2147426889,2148015744,2147870994,2147606308,2147107428,2148219995,2147202761,639,4,14,44512
1369002222,5808,304.4800109863281000,10.8770999908447270,34.1581001281738300,206.5839996337890600,464.5191955566406000,10.8839702606201170,35.8327293395996100,48,104,84,79,70,14906,2147729097,2147427684,2148019108,2147875346,2147605686,2147101760,2148230025,2147208868,3123,3,14,50607
1369002397,5807,294.4800109863281000,11.4398002624511720,34.1772003173828100,209.5525054931640600,447.3611145019531000,11.4192600250244140,35.3780212402343750,49,103,89,80,69,14900,2147727268,2147433472,2148025234,2147872969,2147603090,2147111433,2148224402,2147206665,2064,3,13,42300
1369002581,5808,282.3800048828125000,12.1855001449584960,34.2182998657226560,212.0364990234375000,421.7070922851562500,12.2165699005126950,34.8242607116699200,49,103,88,79,68,14904,2147727058,2147436489,2148037650,2147871542,2147600694,2147122276,2148226477,2147207195,3138,3,14,59777
1369002708,5806,271.0499877929687500,12.8519001007080080,34.2528991699218750,213.9257049560547000,402.1134948730469000,12.8233098983764650,34.4095191955566400,48,103,85,79,68,14901,2147727094,2147427282,2148009810,2147869348,2147600493,2147118555,2148213705,2147204160,2052,3,13,13862
1369002825,5808,260.5599975585937500,13.2548999786376950,34.2774009704589840,212.9403991699218800,387.3172912597656000,13.2803497314453120,34.2366294860839840,48,104,87,77,68,14886,2147721481,2147435620,2148040265,2147874075,2147596251,2147127030,2148222299,2147203611,1563,3,13,5449
1369002964,5809,250.1600036621093800,13.6682996749877930,34.3111991882324200,214.7196960449218800,374.8494873046875000,13.6647796630859380,33.9456596374511700,49,104,89,81,68,14899,2147725010,2147457417,2148107008,2147870025,2147591981,2147140123,2148250075,2147210148,296,4,14,43950
1369003160,5809,239.0700073242187500,14.5496997833251950,34.3928985595703100,215.4093017578125000,345.4610900878906000,14.5687198638916020,33.4650192260742200,47,105,87,81,67,14900,2147721353,2147469449,2148137526,2147871899,2147587163,2147151003,2148262747,2147213330,2267,3,15,36569
1369003335,5807,227.5099945068359400,16.0750999450683600,34.5606994628906250,215.3605957031250000,292.4775085449219000,16.1923408508300780,32.6921005249023440,48,105,86,81,67,14891,2147722596,2147493430,2148192009,2147872045,2147581366,2147180214,2148281307,2147212233,2433,3,14,38466
1369003470,5808,215.4600067138672000,16.8924999237060550,34.6584014892578100,214.9718017578125000,269.5830078125000000,16.8922805786132800,32.3868293762207000,50,106,87,80,66,14886,2147723465,2147524918,2148272914,2147871597,2147582820,2147205430,2148313344,2147218258,323,4,14,16158
1369003573,5809,204.0200042724609400,17.4067001342773440,34.7150993347168000,211.7859954833984400,251.2931976318359400,17.4510402679443360,32.3030395507812500,50,110,87,79,64,14882,2147732790,2147570761,2148387273,2147873627,2147581476,2147235072,2148371053,2147223707,75,3,13,49262
1369003640,5809,196.6799926757812500,17.9108009338378900,34.7831993103027340,210.9232025146484400,237.0514984130859400,17.8859996795654300,32.1506996154785160,50,113,86,82,66,14876,2147742418,2147618422,2148492534,2147871798,2147585581,2147266276,2148416530,2147226651,3094,3,15,56467
1369003715,5808,188.5800018310547000,18.0114994049072270,34.7993011474609400,211.7097015380859400,231.9768066406250000,18.0409698486328120,32.0366897583007800,51,115,89,82,64,14878,2147759158,2147682468,2148627117,2147873481,2147590912,2147306889,2148486948,2147232548,3179,3,16,4963
1369003770,5811,183.0000000000000000,18.5494003295898440,34.8716011047363300,211.8078002929687500,215.5982055664062500,18.5411491394042970,31.8045692443847660,54,113,87,82,64,14870,2147774948,2147724397,2148712868,2147872905,2147599268,2147338176,2148534281,2147234614,4,3,14,9169
1369003825,5807,177.8699951171875000,18.7597999572753900,34.9039993286132800,213.4727020263672000,208.5095062255859400,18.7576503753662100,31.6161708831787100,54,120,87,82,65,14867,2147800594,2147804708,2148886674,2147877659,2147605001,2147384475,2148613120,2147241133,182,3,14,44896
1369003880,5804,173.0700073242187500,19.0496006011962900,34.9370002746582000,213.3769989013672000,200.0621948242187500,19.0156803131103500,31.5060501098632800,58,117,89,81,63,14865,2147752182,2147607067,2148395163,2147875373,2147586633,2147279204,2148393490,2147224832,610,3,14,19931
1369003935,5809,168.8099975585937500,19.1639003753662100,34.9534988403320300,213.2677001953125000,195.2814025878906200,19.1617393493652340,31.4464397430419920,61,118,90,81,63,14860,2147852598,2147952758,2149196196,2147879780,2147627858,2147480813,2148757046,2147252626,1431,3,15,36200
1369003990,5808,164.8899993896484400,19.4088993072509770,34.9877014160156250,212.8470001220703000,187.4338073730468800,19.4015407562255860,31.3624992370605470,68,118,86,81,64,14855,2147883995,2148016859,2149324452,2147879360,2147637083,2147512923,2148806939,2147251565,794,2,14,24325
1369004069,5808,160.3000030517578000,19.7015991210937500,35.0192985534668000,212.6083068847656200,177.7057952880859400,19.6988792419433600,31.2435703277587900,75,118,88,81,64,14842,2147834852,2147822692,2148832649,2147877760,2147614930,2147407990,2148574720,2147239808,2646,2,15,15774
1369004148,5807,156.6399993896484400,20.0865001678466800,35.0705986022949200,212.8226928710937500,167.1952972412109400,20.0202903747558600,31.0904998779296880,85,125,87,81,62,14833,2148001636,2148262546,2149776585,2147887561,2147682185,2147641563,2148996205,2147264804,2020,2,15,59028
1369004239,5806,152.5099945068359400,20.2614002227783200,35.0892982482910160,213.6786956787109400,159.4765014648437500,20.2564392089843750,30.9410991668701170,93,123,90,82,63,14830,2148080832,2148420854,2150056758,2147890285,2147712777,2147718235,2149092050,2147274797,2540,2,15,22204
1369004318,5807,148.7400054931640600,20.4552001953125000,35.1114006042480500,214.3746032714843800,153.2816009521484400,20.4460391998291000,30.8214092254638670,102,126,89,82,62,14818,2148204178,2148665216,2150494180,2147894262,2147759241,2147826532,2149259730,2147290980,2288,2,15,55269
1369004400,5815,144.5299987792968800,20.5723991394042970,35.1223983764648440,214.6873931884765600,149.0216064453125000,20.5764694213867200,30.7480201721191400,103,124,89,82,63,14808,2148313298,2148843958,2150763181,2147896694,2147794038,2147881408,2149321636,2147293613,1796,2,16,13206
1369004479,5807,140.0399932861328000,20.8686008453369140,35.1478996276855500,214.1336059570312500,139.7510070800781200,20.8604393005371100,30.6543693542480470,111,128,90,83,62,14792,2148553106,2149289225,2151575076,2147910921,2147886006,2148091282,2149639616,2147318756,1317,2,15,39666
1369004546,5810,136.2500000000000000,20.9284000396728500,35.1567001342773440,215.2028961181640600,137.7059020996093800,20.9231090545654300,30.5709896087646500,117,130,91,86,62,14788,2148765750,2149661741,2152210797,2147921929,2147963529,2148256438,2149894372,2147339062,316,2,15,25597
1369004613,5811,132.4299926757812500,21.0366992950439450,35.1665992736816400,215.2660980224609400,133.1808013916015600,21.0618095397949220,30.5077304840087900,121,132,88,83,63,14775,2148996992,2150038098,2152845101,2147934884,2148047332,2148413851,2150125522,2147358235,502,2,15,53155
1369004682,5811,128.6900024414062500,21.1693000793457030,35.1822013854980500,216.4868927001953000,129.8822937011718800,21.1629505157470700,30.4006099700927730,122,131,90,83,62,14772,2149342957,2150600612,2153771410,2147952786,2148168219,2148657874,2150468754,2147386020,73,2,15,63217
1369004749,5809,125.4000015258789000,21.2131004333496100,35.1871986389160160,217.3195953369140600,128.4732055664062500,21.2061595916748050,30.3388404846191400,127,131,91,85,61,14764,2149700608,2151174454,2154690203,2147974272,2148303497,2148886720,2150800813,2147417874,2803,2,15,32243
1369004840,5813,121.5800018310546900,21.5076999664306640,35.2132987976074200,218.2752990722656200,120.5410995483398400,21.4495105743408200,30.1854896545410160,144,139,89,85,62,14743,2150260507,2152016886,2155958528,2148000246,2148508160,2149217782,2151246272,2147460288,2259,2,15,23769
1369004979,5810,118.5100021362304700,21.5762004852294920,35.2228012084960940,220.5590972900390600,116.7362976074218800,21.5663108825683600,30.0194206237792970,153,138,91,84,62,14713,2150970121,2153051584,2157434852,2148033956,2148746066,2149567981,2151707373,2147500178,187,2,15,47022
1369005126,5807,114.1999969482421900,21.8864002227783200,35.2383995056152340,223.1284027099609400,106.8183975219726600,21.8709392547607420,29.7613296508789060,159,142,94,85,62,14693,2151790784,2154025334,2158294089,2148063789,2149005979,2149806006,2151853476,2147530697,3063,2,15,41400
1369005217,5809,110.9100036621093800,21.9228992462158200,35.2378005981445300,224.5139007568359400,105.3395004272461000,21.9164009094238280,29.6734905242919920,166,141,93,86,61,14639,2153998089,2157310811,2162899364,2148166034,2149777060,2151024749,2153465764,2147677522,3521,2,16,29486
1369005308,5812,106.5100021362304700,21.9533996582031250,35.2406005859375000,225.0735015869140600,104.2885971069336000,21.9486999511718750,29.6324195861816400,175,143,92,89,60,14684,2156526875,2160747410,2167112182,2148293677,2150626587,2152197805,2154820123,2147823094,3465,2,16,64612
1369005387,5809,101.6999969482421900,22.0135002136230470,35.2389984130859400,225.3520050048828000,102.2014007568359400,22.0128707885742200,29.5917606353759770,178,141,94,85,61,14669,2159879561,2165124736,2172111506,2148456877,2151799835,2153786422,2156560786,2148012132,3115,2,16,9622
1369005442,5810,97.7300033569336000,22.0995998382568360,35.2444000244140600,226.3260955810547000,99.7638702392578100,22.0878200531005860,29.5122795104980470,175,146,93,86,61,14631,2163859712,2170306285,2177947236,2148684918,2153205860,2155645220,2158579364,2148242779,2841,2,16,3652
1369005497,5805,93.8700027465820300,22.2287998199462900,35.2495002746582000,227.8596954345703000,95.3457870483398400,22.2237300872802730,29.3810901641845700,189,157,97,86,61,14622,2168246518,2175834432,2183567341,2148900854,2154784384,2157689691,2160682907,2148466340,3568,3,15,24720
1369005552,5808,90.1299972534179700,22.3262996673584000,35.2593002319335940,231.0182952880859400,92.3201293945312500,22.3168392181396500,29.1905708312988280,165,149,93,89,62,14626,2173698121,2182568356,2190282377,2149216009,2156912420,2160413412,2163416548,2148777645,563,2,15,18496
1369005607,5810,86.6600036621093800,22.3465995788574220,35.2608985900878900,232.6047973632812500,91.4454269409179700,22.3437690734863280,29.1043701171875000,155,153,95,86,57,14607,2180377773,2190426313,2197293019,2149577984,2159599963,2163758016,2166588022,2149141769,218,2,15,64474
1369005662,5811,83.4000015258789000,22.3875999450683600,35.2579002380371100,233.4647064208984400,90.1835327148437500,22.3826103210449220,29.0476799011230470,141,142,95,88,57,14618,2188615113,2200168923,2206232704,2150102363,2163066468,2168013824,2170437522,2149588132,901,2,15,60554
1369005738,5809,79.9499969482421900,22.4808998107910160,35.2631988525390600,233.8755950927734400,87.1029815673828100,22.4774703979492200,28.9892597198486330,128,133,90,86,60,14646,2197820169,2210618395,2215344237,2150632969,2167133558,2172943424,2174543826,2150070537,66,2,15,19774
1369005805,5807,78.0699996948242200,22.7161998748779300,35.3081016540527340,234.8038024902343800,80.0655212402343800,22.6943092346191400,28.8566207885742200,95,132,90,86,59,14692,2204097554,2216966637,2220277220,2151019584,2170621165,2176951286,2177593334,2150438198,3385,2,16,6516
1369005896,5807,76.6999969482421900,22.8621006011962900,35.3330001831054700,237.5299987792968800,74.6213836669921900,22.8621807098388670,28.6621398925781250,80,126,91,86,59,14704,2209273691,2222004644,2224015570,2151274962,2174551533,2181495497,2180735378,2150761773,2926,2,16,26300
1369005999,5808,75.6800003051757800,23.0258998870849600,35.3549995422363300,240.5388031005859400,69.6658477783203100,23.0150909423828120,28.4629001617431640,71,128,92,86,60,14726,2214210203,2227171364,2228672091,2151663826,2178595958,2186146541,2183964306,2151103268,2641,2,16,49404
1369006111,5805,73.0999984741211000,23.0545005798339840,35.3614006042480500,242.5131072998047000,68.5242233276367200,23.0503292083740230,28.3601093292236330,68,127,90,85,57,14733,2221816448,2234130139,2234166308,2152306422,2186818166,2195298377,2189900004,2151670354,2383,1,16,64171
1369006166,5804,70.7699966430664000,23.0638999938964840,35.3627014160156250,243.2895050048828000,68.0408477783203100,23.0652503967285160,28.3194007873535160,67,127,91,85,54,14726,2231137673,2243895241,2243523977,2153213641,2193971529,2203437632,2195719414,2152344475,1820,1,16,55713
1369006221,5808,68.1299972534179700,23.1362991333007800,35.3690986633300800,243.7216033935547000,65.5674133300781200,23.1416301727294920,28.2693099975585940,63,127,94,85,58,14728,2240692918,2253397888,2252569033,2154467995,2201945408,2212200000,2201998710,2153093440,1429,2,16,21342
1369006276,5807,65.4199981689453100,23.2467002868652340,35.3753013610839840,244.8638000488281200,62.4082794189453100,23.2392101287841800,28.1793899536132800,61,128,94,86,57,14729,2237630436,2247479680,2245126875,2154453257,2204297033,2213739968,2201905883,2153084946,1065,2,16,5392
1369006331,5809,62.8499984741210940,23.2486991882324220,35.3708000183105500,245.2996978759765600,61.7063713073730500,23.2609004974365230,28.1513900756835940,60,126,91,85,60,14733,2256378669,2268337910,2266213193,2156703277,2218668763,2229999680,2214164333,2154519817,1418,2,16,60329
1369006389,5809,60.0800018310546900,23.2884998321533200,35.3600997924804700,244.9364929199218800,60.8261604309082000,23.2880992889404300,28.1565093994140620,60,128,91,85,59,14726,2271596205,2284431945,2282508644,2159335680,2230164278,2242360448,2222976429,2155718564,1632,2,16,50008
1369006444,5806,57.6399993896484400,23.3932991027832030,35.3563995361328100,244.1672973632812500,57.3523292541503900,23.3954792022705080,28.1471290588378900,57,126,94,86,55,14733,2278909202,2290506505,2287497499,2160912658,2238882523,2251224201,2228868086,2156525741,1966,1,16,38068
1369006499,5810,55.5699996948242200,23.4626007080078120,35.3650016784668000,244.3211059570312500,55.2450294494628900,23.4606494903564450,28.1142692565917970,58,125,94,85,57,14730,2286825289,2298196160,2294705618,2162427053,2248514934,2261283556,2236089334,2157460553,2623,1,16,37658
1369006554,5808,53.7999992370605500,23.4727001190185550,35.3647994995117200,244.8132019042968800,54.6451110839843750,23.4792003631591800,28.0850105285644530,57,127,95,86,57,14731,2300660516,2312982226,2310080512,2165214838,2257643693,2270344384,2242058642,2158409124,2595,1,16,56011
1369006609,5806,52.1199989318847660,23.4948005676269530,35.3661994934082000,245.1656036376953000,53.8798713684082000,23.5028705596923830,28.0600395202636720,57,128,94,86,55,14733,2306531538,2317592448,2313810020,2166909083,2267160374,2279737490,2248187401,2159300141,2433,1,16,4023
1369006676,5807,50.1899986267089840,23.5496997833251950,35.3698997497558600,245.2563018798828000,52.2260513305664060,23.5540409088134770,28.0355300903320300,57,127,93,86,56,14715,2317569133,2327730404,2323361865,2169486848,2279519158,2292147785,2256510729,2160591286,1992,1,16,62700
1369006754,5809,47.8800010681152340,23.7858009338378900,35.3800010681152340,245.8352966308593800,44.8380813598632800,23.7827606201171880,27.9186305999755860,55,129,94,86,59,14725,2328957714,2338269833,2334368155,2173333330,2293943798,2305266294,2264484708,2161981266,1509,2,16,59043
1369006809,5807,46.0900001525878900,23.8257999420166000,35.3819999694824200,246.7993011474609400,43.2573394775390600,23.8317298889160160,27.8571300506591800,54,125,92,87,57,14722,2331035666,2337958043,2333508022,2175290752,2304414336,2314126747,2269658980,2162749366,683,1,16,44077
1369006876,5810,44.1100006103515600,23.8565998077392580,35.3819999694824200,247.1739959716797000,42.1930198669433600,23.8647098541259770,27.8276405334472660,55,125,94,86,57,14725,2343792548,2349449728,2343869632,2178750244,2321638555,2329372288,2278824804,2164132562,412,1,16,27318
1369006943,5808,42.2299995422363300,23.8829002380371100,35.3825988769531250,247.4234008789062500,41.0228805541992200,23.9009799957275400,27.8025207519531250,53,126,91,85,55,14716,2360334939,2366126902,2361089042,2183757174,2339537435,2345193618,2288384274,2165851602,373,1,16,7225
1369007022,5805,39.9799995422363300,23.9631996154785160,35.3810997009277340,247.4163970947265600,38.6435508728027340,23.9747390747070300,27.7735500335693360,54,126,94,86,55,14686,2367963264,2371083428,2364209261,2187852635,2361619574,2364060480,2299535890,2167572589,147,2,16,39637
1369007100,5808,37.3300018310546900,24.1508998870849600,35.3801994323730500,246.6575927734375000,33.0626106262207000,24.1478595733642580,27.7376003265380860,51,128,90,85,53,14713,2398072996,2401760118,2395702555,2199719698,2394708964,2393715373,2318694646,2171493760,3448,2,16,37660
1369007155,5808,34.9500007629394500,24.3272991180419920,35.3796005249023440,245.9326019287109400,27.1981391906738280,24.3299407958984380,27.6968402862548830,54,124,91,88,58,14713,2402858953,2403900041,2396384859,2204555492,2416335826,2410896932,2327904237,2173360329,3180,1,15,39719
1369007210,5809,32.9599990844726560,24.6965999603271500,35.3741989135742200,243.8955993652343800,17.3187294006347660,24.6371002197265620,27.6642093658447270,51,123,91,84,57,14726,2278047753,2268865024,2256040923,2171661138,2307587273,2294065590,2241333906,2159792768,2628,2,15,62657
1369007277,5806,31.5799999237060550,24.9491004943847660,35.3746986389160160,242.0451965332031200,7.4995012283325195,24.9429092407226560,27.6248607635498050,51,121,89,83,56,14740,2430759369,2431843236,2425688411,2219716434,2454074587,2443546587,2348867163,2178214546,193,1,16,6604
1369007427,5806,29.1399993896484380,25.1196002960205080,35.3748016357421900,239.3191070556640600,1.3665410280227661,25.1341896057128900,27.6705207824707030,51,117,93,83,54,14734,2445827721,2449473654,2445832713,2234233133,2480756918,2463399881,2359264557,2181854317,2659,2,16,30263
1369007494,5808,26.7600002288818360,25.1310997009277340,35.3737983703613300,238.6842041015625000,0.9844601154327393,25.1461105346679700,27.6941509246826170,50,119,90,82,55,14729,2454548434,2457486482,2454651675,2246205787,2518398326,2496848795,2381633920,2187403419,2330,1,16,11621
1369007549,5808,24.6000003814697270,25.1497001647949220,35.3740005493164060,238.3919982910156200,0.1884340941905975,25.1709594726562500,27.6972408294677730,51,118,91,84,58,14737,2467389165,2470945819,2469203446,2260613312,2541741714,2514961728,2392034852,2190711149,2164,2,16,36309
